Regional Weather Roundup
Issued by NWS

Home | Current Version | Previous Version | Text Only | Print | Product List | Glossary Off
Versions: 1 2 3 4 5 6 7 8 9 10 11 12 13 14 15 16 17 18 19 20 21 22 23 24 25 26 27 28 29 30 31 32 33 34 35 36 37 38 39 40 41 42 43 44 45 46 47 48 49 50

000
ASUS43 KLOT 270710
RWRIL

ILLINOIS REGIONAL WEATHER ROUNDUP
NATIONAL WEATHER SERVICE CHICAGO/ROMEOVILLE IL
100 AM CST THU NOV 27 2014

NOTE: "FAIR" INDICATES FEW OR NO CLOUDS BELOW 12,000 FEET WITH NO
SIGNIFICANT WEATHER AND/OR OBSTRUCTIONS TO VISIBILITY.

* THESE STATIONS ARE NOT UNDER NWS QUALITY CONTROL. THEY ALSO MAY NOT
  REPORT WEATHER SUCH AS PRECIPITATION OR FOG.

ILZ001-002-007-009-015-016-024-270800-
NORTHWEST ILLINOIS

CITY           SKY/WX    TMP DP  RH WIND       PRES   REMARKS
MOLINE         MOCLDY    25  19  78 NW7       30.29R WCI  17
STERLING*      MOCLDY    21  16  79 NW9       30.26R WCI  11
SAVANNA*       CLOUDY    24  20  84 NW6       30.28R FOG     WCI  17
$$

ILZ003-004-008-010-011-017-018-270800-
NORTH CENTRAL ILLINOIS

CITY           SKY/WX    TMP DP  RH WIND       PRES   REMARKS
ROCKFORD       CLOUDY    20  15  81 NW10      30.25R FOG     WCI   9
FREEPORT*      CLOUDY    19  17  89 NW6       30.26S FOG     WCI  11
ROCHELLE*      PTCLDY    16  14  92 CALM      30.24S FOG
DE KALB*       CLEAR     17  15  90 NW7       30.21S FOG     WCI   8
PERU*          CLEAR     21  18  87 NW6       30.24S FOG     WCI  13
$$

ILZ005-006-012>014-019>023-270800-
NORTHEAST ILLINOIS

CITY           SKY/WX    TMP DP  RH WIND       PRES   REMARKS
CHICAGO-OHARE  FLURRIES  26  21  81 NW13      30.18S WCI  15
CHICAGO-MIDWAY LGT SNOW  29  22  75 NW9       30.19S WCI  20
AURORA         CLOUDY    23  18  81 NW9       30.22R HAZE    WCI  13
LANSING*       FLURRIES  29  25  84 NW5       30.18S WCI  24
JOLIET*        CLOUDY    26  22  85 NW5       30.21S FOG     WCI  20
WAUKEGAN       CLOUDY    23  18  81 NW8       30.19R WCI  14
DUPAGE AIRPORT CLOUDY    25  19  78 NW8       30.20R WCI  16
KANKAKEE*      CLOUDY   N/A N/A N/A W10       30.20S
WHEELING       CLOUDY    25  20  81 NW9       30.21R WCI  15
MORRIS*        CLOUDY    25  23  89 NW7       30.21S FOG     WCI  18
ROMEOVILLE*    CLOUDY    26  23  86 NW8       30.21R WCI  18
NORTHERLY ISL    N/A     29  23  78 W9          N/A  WCI  21
$$

LMZ740>746-270800-
SOUTHERN LAKE MICHIGAN

STATION/POSITION SKY/WX   TEMP    WIND        PRES    VSBY  WAVE
                          AIR SEA DIR/SP/G                  HT/PER
                          (F)     (DEG/KT/KT) (MB)    (MI)  (FT/S)
SOUTHERN BUOY              32 42  320/ 17/ 21 1021.9R         5/ 5
WAUKEGAN HARBOR            25     300/ 15/ 18   N/A
HARRISON CRIB              28     300/ 12/ 15   N/A
BURNHAM HARBOR             29     290/ 11       N/A
CALUMET HARBOR             29     280/  6/  9 1020.7S
MICHIGAN CITY              28     200/  6/  7   N/A
$$

ILZ025>027-034>036-040-047-049-050-058-095>099-270800-
WEST-CENTRAL ILLINOIS

CITY           SKY/WX    TMP DP  RH WIND       PRES   REMARKS
QUINCY         CLOUDY    27  23  85 N9        30.31R FOG     WCI  18
GALESBURG*     CLOUDY    21  19  93 W6        30.28R WCI  13
MACOMB*        CLOUDY    20  19  96 W7        30.32R FOG     WCI  11
JACKSONVILLE*  CLOUDY    28  24  84 N8        30.28R WCI  20
PITTSFIELD*    CLOUDY    28  26  89 N9        30.30R WCI  20
$$

ILZ028>032-037-038-041>044-048-051>054-059>061-270800-
CENTRAL ILLINOIS

CITY           SKY/WX    TMP DP  RH WIND       PRES   REMARKS
PONTIAC        CLOUDY    27  24  89 NW8       30.23R WCI  19
BLOOMINGTON    PTCLDY    22  20  92 N9        30.23R WCI  12
DECATUR        CLOUDY    27  22  81 N12       30.22R WCI  17
PEORIA         MOCLDY    24  17  74 N3        30.26R
LACON*         CLOUDY    21  17  82 NW3       30.25S
LINCOLN*       PTCLDY    25  21  83 N3        30.26R
SPRINGFIELD    MOCLDY    25  23  92 NW6       30.26R WCI  18
TAYLORVILLE    CLOUDY    27  23  86 N10       30.24R WCI  17
$$

ILZ033-039-045-046-055>057-062-063-270800-
EAST-CENTRAL ILLINOIS

CITY           SKY/WX    TMP DP  RH WIND       PRES   REMARKS
CHAMPAIGN      MOCLDY    25  20  81 N12       30.19S WCI  14
DANVILLE*      MOCLDY    26  21  83 N8        30.16R WCI  17
RANTOUL*       PTCLDY    26  20  80 N10       30.20R WCI  16
MATTOON        FLURRIES  27  23  85 N12       30.18R WCI  17
PARIS*         CLOUDY    28  24  85 N8        30.19R WCI  20
$$

ILZ079-100>102-270800-
SOUTHWEST ILLINOIS

CITY           SKY/WX    TMP DP  RH WIND       PRES   REMARKS
ALTON          LGT SNOW  30  28  92 NW8       30.26R WCI  23
BELLEVILLE     MIX PCPN  32  32 100 N13G22    30.23R WCI  22
CAHOKIA*       CLOUDY    33  30  88 N17       30.25R WCI  22
SPARTA*        CLOUDY    32  32  99 NW7       30.21R FOG     WCI  26
$$

ILZ064>066-069>071-074>076-080>082-084>086-088>090-092>094-270800-
SOUTH-CENTRAL ILLINOIS

CITY           SKY/WX    TMP DP  RH WIND       PRES   REMARKS
CARBONDALE     CLOUDY    33  32  96 NW7       30.19R FOG     WCI  27
CAIRO*         DRIZZLE   39  35  85 NW7       30.18R WCI  34
EFFINGHAM*     CLOUDY    30  26  86 N8        30.20R WCI  22
MARION         CLOUDY    34  32  93 NW3       30.19R FOG
MT. VERNON     CLOUDY    32  27  80 CALM      30.18R
CENTRALIA*     CLOUDY    31  29  92 N7        30.20R FOG     WCI  24
SALEM*         LGT SNOW  32  30  92 N8        30.20R WCI  25
METROPOLIS*    CLOUDY    37  37 100 NW9G20      N/A  FOG     WCI  30
$$

ILZ067-068-072-073-078-083-087-091-270800-
SOUTHEAST ILLINOIS

CITY           SKY/WX    TMP DP  RH WIND       PRES   REMARKS
LAWRENCEVILLE  CLOUDY    31  28  89 N13       30.17R FOG     WCI  21
FLORA*         LGT SNOW  30  29  98 N9        30.20R WCI  22
FAIRFIELD*     LGT SNOW  32  31  95 N7        30.17R WCI  26
HARRISBURG*    LGT SNOW  33  33 100 NW6       30.19R WCI  27
ROBINSON*      CLOUDY    31  27  86 N9        30.18R WCI  23
CARMI*         LGT RAIN  34  34 100 N8        30.16R WCI  27
$$

ABBREVIATIONS USED IN REMARKS
   TC - TEMPERATURE IN CELSIUS
  WCI - WIND CHILL INDEX
   HX - HEAT INDEX
  VSB - VISIBILITY
$$



USA.gov is the U.S. government's official web portal to all federal, state and local government web resources and services.